Forecast Directory
U.S. Alerts
El Dorado Weather Logo
U.S. Radar Loop Conditions Map

U.S. Color Satellite North America Color Infrared Animated Satellite Loop

Interactive Wx Map Live U.S. Google Map Radar Thumbnail Image

US Precipitation 1 day, 24 hour precipitation map

US Temperatures US Conditions Map

US Climate Data US Conditions Map


NOAA NWS Hourly Roundups by Site
Regional Weather Roundup for Sacramento, CA
Select Site:  

000
ASUS46 KSTO 280315
RWRCA

NORTHERN AND CENTRAL CA REGIONAL WEATHER ROUNDUP
NATIONAL WEATHER SERVICE SACRAMENTO CA
700 PM PST FRI JAN 27 2023

NOTE: FAIR INDICATES FEW OR NO CLOUDS BELOW 12,000 FEET WITH NO
SIGNIFICANT WEATHER AND/OR OBSTRUCTIONS TO VISIBILITY.

CAZ001-003-280400-
NORTHWEST AREA

CITY           SKY/WX    TMP DP  RH WIND       PRES   REMARKS
CRESCENT CITY  CLEAR     49  46  90 N14G28    30.21S FOG
UKIAH          CLEAR     56  38  50 VRB6G17   30.06R
$$

CAZ006-505>513-280400-
BAY AREA

CITY           SKY/WX    TMP DP  RH WIND       PRES   REMARKS
SANTA ROSA     CLEAR     46  42  86 SE3       30.04F
CONCORD        CLEAR     51  42  71 CALM      30.05R
OAKLAND CITY   N/A       51  MM  MM MISG
OAKLAND        MOCLDY    48  44  86 CALM      30.07F
SAN FRAN CITY  N/A       51  MM  87 MISG
SAN FRAN ARPT  PTCLDY    52  47  83 W15G24    30.04F
LIVERMORE      CLEAR     49  43  80 NW8       30.04F
HAYWARD        MOCLDY    50  46  86 N5        30.06F
REDWOOD CITY   N/A       50  MM  75 MISG
MOFFETT ARPT   CLEAR     50  46  87 N6        30.06S
SAN JOSE ARPT  PTCLDY    50  44  80 NW9       30.06F
$$
CAZ034-037-514>518-280400-
CENTRAL COAST

CITY           SKY/WX    TMP DP  RH WIND       PRES   REMARKS
WATSONVILLE    MOCLDY    47  47 100 E6        30.07S
SALINAS        CLOUDY    52  48  86 NW7       30.07F
MONTEREY       MOCLDY    49  46  90 SW5       30.09F
SAN LUIS OBISP PTCLDY    51  49  92 NW10      30.04S
SANTA MARIA    CLEAR     50  50 100 W12       30.04S
HALF MOON BAY  CLOUDY    48  48 100 CALM      30.08F
$$
CAZ015-016-280400-
NORTHERN SACRAMENTO VALLEY

CITY           SKY/WX    TMP DP  RH WIND       PRES   REMARKS
REDDING        CLEAR     46  39  76 CALM      30.08R
RED BLUFF      CLEAR     47  40  76 NW6       30.08S
OROVILLE       CLEAR     49  43  80 N5        30.07F
$$
CAZ016>018-280400-
SOUTHERN SACRAMENTO VALLEY

CITY           SKY/WX    TMP DP  RH WIND       PRES   REMARKS
AUBURN         CLEAR     45  39  81 CALM      30.05S
BEALE AFB      CLEAR     47  41  80 NW5       30.05S
LINCOLN        FAIR      46  43  87 N6        30.05S
MARYSVILLE     CLEAR     50  42  74 NW6       30.07R
SAC INTL ARPT  CLEAR     51  43  74 N6        30.05S
MATHER AIRPORT CLEAR     46  41  81 NE3       30.03F
DOWNTOWN SAC   N/A       52  MM  MM MISG
SAC EXEC ARPT  CLEAR     50  42  74 CALM      30.05S
VACAVILLE      CLEAR     51  42  71 NW5       30.07R
TRAVIS AFB     CLEAR     50  44  79 W6        30.04R
$$
CAZ019>021-280400-
SAN JOAQUIN VALLEY

CITY           SKY/WX    TMP DP  RH WIND       PRES   REMARKS
STOCKTON       CLEAR     52  42  69 CALM      30.03S
MODESTO        CLEAR     50  42  74 CALM      30.03F
MERCED         CLEAR     50  43  77 CALM      30.04F
LEMOORE        PTCLDY    50  40  68 S6        30.05S
FRESNO         PTCLDY    54  41  61 CALM      30.05F
HANFORD        PTCLDY    49  42  77 S3        30.05F
PORTERVILLE    PTCLDY    49  44  83 CALM      30.06F
BAKERSFIELD    CLEAR     52  41  66 NE5       30.04F
$$
CAZ011-012-071-280400-
NORTHERN MOUNTAINS

CITY           SKY/WX    TMP DP  RH WIND       PRES   REMARKS
YREKA          CLEAR     39  29  67 NE9       30.18F WCI  33
MOUNT SHASTA   CLEAR     40  25  55 NW8       30.09F WCI  34
ALTURAS        CLEAR     35  25  66 NW14      30.09S WCI  26
$$
CAZ011-012-071-280400-
SIERRA NEVADA MTNS

CITY           SKY/WX    TMP DP  RH WIND       PRES   REMARKS
BLUE CANYON    CLEAR     37  29  72 CALM      30.06F
TRUCKEE        CLEAR     27  16  63 CALM      30.05S
TAHOE VLY ARPT CLEAR     23  14  68 S3        30.05S
MAMMOTH LAKES  FAIR      34  14  44 W16       30.01S WCI  23
$$


 

View Past Reports for Sacramento, CA.

Products Courtesy of NOAA-NWS
NWS Information Parsing Script by Ken True at Saratoga Weather - Script by SE Lincoln Weather.



Contact Us Contact Us Thumbnail | Mobile Mobile Phone Thumbnail
Never base any life decisions on weather information from this site or anywhere over the Internet.
Site is dedicated to our Lord & Savior Jesus Christ | Random Quotes of Jesus

Copyright © 2023 El Dorado Weather, Inc. | Site Designed By:  Webmaster Danny